Regional Weather Roundup
Issued by NWS

Home | Current Version | Previous Version | Graphics & Text | Print | Product List | Glossary Off
Versions: 1 2 3 4 5 6 7 8 9 10 11 12 13 14 15 16 17 18 19 20 21 22 23 24 25 26 27 28 29 30 31 32 33 34 35 36 37 38 39 40 41 42 43 44 45 46 47 48 49 50

000
ASUS43 KMPX 051510
RWRMN
WEATHER ROUNDUP FOR MINNESOTA
NATIONAL WEATHER SERVICE TWIN CITIES/CHANHASSEN MN
1000 AM CDT SUN JUL 05 2015


NOTE: "FAIR" INDICATES FEW OR NO CLOUDS BELOW 12,000 FEET WITH NO
SIGNIFICANT WEATHER AND/OR OBSTRUCTIONS TO VISIBILITY. N/A MEANS
CURRENT SKY AND/OR WEATHER CONDITIONS ARE NOT AVAILABLE.

MNZ060>063-068>070-051600-
   Twin Cities Metro

CITY           SKY/WX    TMP DP  RH WIND       PRES   REMARKS
TWIN CITIES    CLOUDY    75  61  61 S10       29.91F
ST PAUL        PTSUNNY   74  64  71 S9        29.92F
CRYSTAL        CLOUDY    75  62  64 S8        29.89F
BLAINE         CLOUDY    75  64  69 S8        29.90F
LAKEVILLE      CLOUDY    70  63  78 S7        29.93F
EDEN PRAIRIE   CLOUDY    74  63  68 S12       29.90F
SOUTH ST PAUL  CLOUDY    75  62  64 S10       29.92F
LAKE ELMO      FAIR      73  64  73 S14       29.94F
$$
MNZ001>005-007-008-013>017-022>024-027-028-051600-
   Northwest Minnesota

CITY           SKY/WX    TMP DP  RH WIND       PRES   REMARKS
BEMIDJI        CLOUDY    73  66  80 S14       29.77F
HALLOCK        CLOUDY    68  66  94 N6        29.75R
ROSEAU         CLOUDY    66  63  88 CALM      29.76F
WARROAD        CLOUDY    68  64  88 CALM      29.77F
THIEF RVR FALL PTSUNNY   72  66  83 N8        29.77R
CROOKSTON      MOSUNNY   75  70  83 S12       29.74R
FOSSTON        MOSUNNY   75  66  73 S14       29.74F
DETROIT LAKES  SUNNY     77  64  65 S13       29.78F
MOORHEAD       SUNNY     75  66  73 S9        29.75S
PARK RAPIDS    MOSUNNY   76  64  66 S15       29.79F
MAHNOMEN       FAIR      75  66  75 S16G23    29.76R
$$
MNZ006-009>011-018-025>026-051600-
   North Central Minnesota

CITY           SKY/WX    TMP DP  RH WIND       PRES   REMARKS
BAUDETTE       MOSUNNY   73  65  75 N6        29.78R
INTL FALLS     MOSUNNY   74  67  78 S6        29.80F HAZE
WASKISH        CLOUDY    72  66  83 SE5       29.76F
BIG FORK       PTSUNNY   75  66  73 S10       29.81S
LONGVILLE      PTSUNNY   73  64  73 S10G16    29.81F
GRAND RAPIDS   CLOUDY    72  63  73 S13       29.83F
CRANE LAKE     CLOUDY    72  64  78 S6        29.85F
ORR            CLOUDY    73  63  68 CALM      29.81S
COOK           CLOUDY    73  64  73 S7        29.84F
WALKER         FAIR      74  64  73 S9        29.78F
$$
MNZ012-019>021-037-051600-
   Northeast Minnesota

CITY           SKY/WX    TMP DP  RH WIND       PRES   REMARKS
DULUTH         PTSUNNY   71  61  70 SW12      29.90F
ELY            PTSUNNY   73  61  64 SW10G17   29.87F
HIBBING        CLOUDY    73  64  73 S10       29.85F
DULUTH HARBOR  MOSUNNY   64  59  82 NE3       29.90F
TWO HARBORS    PTSUNNY   73  64  73 SW8       29.88F
SILVER BAY     MOSUNNY   73  63  68 S10       29.87F
GRAND MARAIS     N/A     55  48  77 CALM      29.90F
G MARAIS ARPRT MOSUNNY   70  59  68 S7        29.93R HAZE
$$
MNZ029>031-032-039>041-046>048-054>057-064-051600-
   West Central Minnesota

CITY           SKY/WX    TMP DP  RH WIND       PRES   REMARKS
FERGUS FALLS   SUNNY     75  64  69 S16       29.75F
WHEATON        SUNNY     75  66  73 S8        29.76F
MORRIS         SUNNY     79  66  65 SE10      29.77F
ALEXANDRIA     MOSUNNY   75  64  68 S12       29.83F
ELBOW LAKE     FAIR      74  66  74 S14       29.77F
WADENA         SUNNY     73  64  73 S13       29.80F
GLENWOOD       PTSUNNY   75  64  69 S15       29.83F
APPLETON       SUNNY     81  64  57 SE8       29.78S
BENSON         MOSUNNY   77  64  65 S9        29.80F
ORTONVILLE     MOSUNNY   79  66  65 S7        29.76F
MADISON        MOSUNNY   79  64  61 SE9       29.78F
WILLMAR        FAIR      75  64  69 S9        29.84F
$$
MNZ033>034-036-042>043-049>051-058-059-051600-
   Central Minnesota

CITY           SKY/WX    TMP DP  RH WIND       PRES   REMARKS
ST CLOUD       PTSUNNY   73  63  70 S13       29.86F
SAUK CENTRE    FAIR      74  65  74 S14       29.84F
PAYNESVILLE    PTSUNNY   71  63  75 SE12      29.85F
AITKIN         PTSUNNY   75  64  69 S12G20    29.82F
PINE RIVER       N/A     73  64  73 S10       29.85F
BRAINERD       PTSUNNY   75  63  66 S14       29.83F
STAPLES        MOSUNNY   73  63  68 S14       29.81F
LONG PRAIRIE   FAIR      72  64  78 SE12      29.83F
LITTLE FALLS   PTSUNNY   73  61  64 SE12      29.84F
LITCHFIELD     PTSUNNY   73  66  78 SE5       29.87F
BUFFALO        PTSUNNY   73  62  68 SE12      29.89F
MAPLE LAKE     PTSUNNY   75  66  75 S7        29.88F
$$
MNZ037-044-045-052-053-051600-
   East Central Minnesota

CITY           SKY/WX    TMP DP  RH WIND       PRES   REMARKS
PRINCETON      CLOUDY    75  64  69 SE13      29.88F
MORA           PTSUNNY   70  61  73 S9        29.90F
CAMBRIDGE      CLOUDY    75  61  60 SE7       29.87F
RUSH CITY      PTSUNNY   73  63  71 S9        29.90F
MOOSE LAKE     PTSUNNY   72  63  73 S8        29.87F
HINCKLEY       FAIR      72  63  73 S7        29.91F
CLOQUET        PTSUNNY   72  63  73 S7        29.89F
MCGREGOR       PTSUNNY   73  63  68 S15       29.86F
$$
MNZ071>073-080-081-089-090-097-098-051600-
   Southwest Minnesota

CITY           SKY/WX    TMP DP  RH WIND       PRES   REMARKS
MONTEVIDEO     SUNNY     77  66  69 S12       29.80F
GRANITE FALLS  MOSUNNY   75  65  71 SE15      29.83S
CANBY          SUNNY     81  61  50 SW12G23   29.78F
MARSHALL       MOSUNNY   73  63  68 SE13      29.80S
REDWOOD FALLS  CLOUDY    75  63  66 S17G28    29.83F
OLIVIA         CLOUDY    73  61  64 SE14G20   29.82F
PIPESTONE      MOSUNNY   75  66  73 SW16      29.84F
WINDOM         CLOUDY    72  63  73 S16G24    29.85F
WORTHINGTON    CLOUDY    66  61  82 S18G24    29.87F
JACKSON        CLOUDY    72  63  73 S13       29.92F
TRACY          PTSUNNY   74  65  75 S15G23    29.82S
SLAYTON        CLOUDY    71  66  82 S16       29.83R
$$
MNZ065>067-074>077-082>085-091>093-051600-
   South Central Minnesota

CITY           SKY/WX    TMP DP  RH WIND       PRES   REMARKS
MANKATO        PTSUNNY   73  63  68 S10       29.92F
NEW ULM        CLOUDY    73  64  73 S15       29.87F
ST JAMES       CLOUDY    73  64  73 S15G21    29.90F
FAIRMONT       CLOUDY    72  61  68 S16G22    29.92F
GLENCOE        PTSUNNY   75  66  74 S7        29.89F
FARIBAULT      PTSUNNY   73  64  73 S12G17    29.95F
OWATONNA       PTSUNNY   73  63  68 S10       29.96F
WASECA         PTSUNNY   72  63  73 S12       29.96F
ALBERT LEA     PTSUNNY   73  63  68 S12G17    29.97F
$$
MNZ078>079-086>088-094>096-051600-
   Southeast Minnesota

CITY           SKY/WX    TMP DP  RH WIND       PRES   REMARKS
ROCHESTER      PTSUNNY   75  64  68 S13       30.01S
RED WING       PTSUNNY   75  63  64 S6        29.94F
STANTON        PTSUNNY   73  63  68 S10       29.94F
DODGE CENTER   PTSUNNY   72  64  78 S10       29.99S
WINONA         SUNNY     77  63  61 S5        29.99F
AUSTIN         PTSUNNY   73  64  73 S10       29.99F
PRESTON        MOSUNNY   73  63  71 S13       30.02F
$$
ABBREVIATIONS USED IN REMARKS
   TC - TEMPERATURES IN CELSIUS
  WCI - WIND CHILL INDEX
   HX - HEAT INDEX
  VSB - VISIBILITY
$$



USA.gov is the U.S. government's official web portal to all federal, state and local government web resources and services.